Regional Weather Roundup
Issued by NWS San Diego, CA

Home | Current Version | Previous Version | Text Only | Print | Product List | Glossary On
Versions: 1 2 3 4 5 6 7 8 9 10 11 12 13 14 15 16 17 18 19 20 21 22 23 24 25 26 27 28 29 30 31 32 33 34 35 36 37 38 39 40 41 42 43 44 45 46 47 48
000
ASUS46 KSGX 061111
RWRSGX

SAN DIEGO HOURLY WEATHER ROUNDUP
NATIONAL WEATHER SERVICE SAN DIEGO CA
300 AM PST FRI MAR 06 2015

NOTE: "FAIR" INDICATES FEW OR NO CLOUDS BELOW 12,000 FEET WITH NO
SIGNIFICANT WEATHER AND/OR OBSTRUCTIONS TO VISIBILITY.

CAZ042-043-060-061-PZZ750-775-061200-

GREATER SAN DIEGO AREA

CITY           SKY/WX    TMP DP  RH WIND       PRES   REMARKS
LINDBERGH FLD  CLEAR     53  41  63 SW3       30.13F
NATIONAL CITY    N/A     50  36  59 CALM      30.12F
CHULA VISTA      N/A     46  37  70 CALM      30.05F
IMPERIAL BEACH CLEAR     49  37  63 E8        30.12F
BROWN FIELD    CLEAR     51  28  41 NE7       30.12F
MIRAMAR MCAS   CLEAR     48  30  49 E8        30.11F
MONTGOMERY FLD CLEAR     49  33  54 E3        30.12F

$$

NORTH SAN DIEGO COUNTY

CITY           SKY/WX    TMP DP  RH WIND       PRES   REMARKS
CAMP PENDLETON CLEAR     36  30  79 SW3       30.13F
OCEANSIDE AP   CLEAR     36  32  85 E3        30.12F
OCEANSIDE HBR    N/A     49  36  60 E9        30.15F
VISTA            N/A     47  34  61 CALM      30.12S
CARLSBAD       CLEAR     50  33  52 E5        30.11F
DEL MAR          N/A     52  45  76 CALM      30.14F
FALLBROOK        N/A     55  24  29 CALM      30.13F
SAN MARCOS       N/A    N/A N/A N/A CALM      30.10F
POWAY            N/A     42  32  68 CALM      30.15F

$$

EAST SAN DIEGO COUNTY

CITY           SKY/WX    TMP DP  RH WIND       PRES   REMARKS
RAMONA         CLEAR     36  26  67 E5        30.13F WCI  32
SANTEE LAKES     N/A     41  33  71 CALM      30.15F
LA MESA          N/A     50  31  48 E3        30.08F
JAMUL            N/A     43  27  53 CALM      30.12F
DESCANSO N       N/A     57  11  16 E16       30.01F
MT. LAGUNA OBS   N/A     43   6  21 NE17      29.78F
CAMPO            N/A     58   9  14 NE16G28   30.09F

$$

ORANGE COUNTY AND THE LOS ANGELES BASIN

CITY           SKY/WX    TMP DP  RH WIND       PRES   REMARKS
JOHN WAYNE AP  CLEAR     52  35  52 CALM      30.11F
LAKE FOREST FR   N/A     64   6  10 N3        29.99F
SANTA ANA        N/A     47  34  60 CALM      30.07F
HUNTINGTON BCH   N/A     50  36  59 N1        30.13F
LOS ALAMITOS   FAIR      49  33  53 NW9       30.11F
FULLERTON      CLEAR     51  30  44 CALM      30.11F
LONG BEACH     CLEAR     53  31  42 NW6       30.12F
L.A. AP        CLEAR     52  32  46 CALM      30.13F
L.A. DOWNTOWN  CLEAR     51  34  52 CALM      30.13F

$$

THE INLAND EMPIRE

CITY           SKY/WX    TMP DP  RH WIND       PRES   REMARKS
CORONA         CLEAR     56  20  24 E9        30.14F
CHINO          CLEAR     51  28  41 NE5       30.15F
ONTARIO        CLEAR     46  28  49 CALM      30.13F
RIVERSIDE AP   CLEAR     45  28  51 E3        30.15F
RIV CYN CREST    N/A     58  31  35 NE7         N/A
MORENO VALLEY    N/A     56  24  28 CALM      29.36F
MARCH ARB      CLEAR     39  24  55 CALM      30.15F
HORSETHIEF CYN   N/A     53  18  24 SW2       30.14F
PERRIS           N/A     52  25  34 SE2         N/A
MENIFEE          N/A     42  34  73 E1        30.25F
HEMET EAST       N/A     51  10  18 CALM      30.17F
FRENCH VALLEY  FAIR      41  28  60 CALM      30.16F
TEMECULA         N/A     45  33  64 CALM      30.12R

$$

SAN BERNARDINO AND RIVERSIDE COUNTY MOUNTAINS

CITY           SKY/WX    TMP DP  RH WIND       PRES   REMARKS
BIG BEAR AP    CLEAR     19  10  68 CALM      30.33F
ANGELUS OAKS     N/A     42  10  26 SE2       30.17F
PINE COVE        N/A     46  -8  10 W1        30.19F

$$

SOUTHERN DESERT INCLUDING THE COACHELLA VALLEY

CITY           SKY/WX    TMP DP  RH WIND       PRES   REMARKS
PALM SPRINGS   CLEAR     61  18  18 W7        30.18F
THOUSAND PALMS   N/A     57  23  26 W1        30.15F
PALM DESERT      N/A     52  32  46 CALM      30.23R
THERMAL        CLEAR     57  24  28 N5        30.13F
BLYTHE         CLEAR     50  34  54 E3        30.16F
IMPERIAL AP    CLEAR     48  33  56 W6        30.11F
EL CENTRO NAS  CLEAR     48  31  51 W12       30.12F
YUMA AZ        CLEAR     61  25  25 N16       30.09F

$$

UPPER DESERT

CITY           SKY/WX    TMP DP  RH WIND       PRES   REMARKS
VICTORVILLE AP   N/A     37  12  35 CALM      30.28S
HESPERIA         N/A     36  19  50 CALM      30.44F
APPLE VALLEY     N/A     33  16  51 CALM      30.32F
PALMDALE       CLEAR     32  22  66 SW5       30.28F WCI  27
LANCASTER      CLEAR     31  22  69 W8        30.29F WCI  23
EDWARDS AFB    CLEAR     32  19  59 SW6       30.26F WCI  26
DAGGETT        CLEAR     45  18  34 W10       30.27F
29 PALMS N     CLEAR     46  21  37 NW6       30.31F
NEEDLES        CLEAR     55  26  32 N9        30.21F

$$

REGIONAL REPORTS

CITY           SKY/WX    TMP DP  RH WIND       PRES   REMARKS
SANTA BARBARA  CLEAR     42  36  79 CALM      30.15F
SANDBERG       CLEAR     45  14  28 NE15      30.29F
MT. WILSON       N/A     43 -11  10 NE3         N/A
LAS VEGAS NV   CLEAR     46  31  55 S10       30.25F
PHOENIX AZ     CLEAR     52  29  41 CALM      30.14F
TIJUANA        CLEAR     46  32  57 CALM      30.15F
ENSENADA NW      N/A     58  32  37 NE6       30.09F

$$

OFFSHORE ISLANDS

CITY           SKY/WX    TMP DP  RH WIND       PRES   REMARKS
CATALINA ARPT  CLEAR     59  15  18 NE6       30.16F
SAN NICOLAS IS CLEAR    N/A N/A N/A NW12      30.14F

$$

MARINE AND OFFSHORE BUOY REPORTS

STATION/POSITION SKY/WX   TEMP    WIND        PRES    SWELL
                          AIR SEA DIR/SP/G            HT/PER/DIR
                          (F)     (DEG/KT/KT) (MB)    (FT/S/D)
TANNER BANKS               61 61  330/ 12/ 16 1020.4F   3/ 10/15
S CLEMENTE BASIN           62 62  350/ 10/ 12 1019.5F   3/220/15
SAN NICOLAS IS.               60                N/A     3/180/14
SO. S. ROSA ISLA           59 60  340/  8/ 12 1020.5F   5/15
W. S. BARBARA CH           59 59  310/  6/  8 1020.7F   3/230/14
S. MONICA BASIN            62 62  340/ 10/ 10 1020.5F   2/190/15
S PEDRO CHANNEL               61                N/A     2/180/15
DANA POINT                    61                N/A     3/190/15
CMP PENDLETON NS              62                N/A     3/210/15
OCEANSIDE OFFSHR              61                N/A     3/190/14
TORREY PINES OTR              62                N/A     3/200/14
LA JOLLA 1                 58 63   70/  3/  4 1020.4F
MISSION BAY BUOY              62                N/A     3/200/14
SAN DIEGO BAY                 65              1021.0F
POINT LOMA SOUTH              63                N/A     3/200/13

$$




USA.gov is the U.S. government's official web portal to all federal, state and local government web resources and services.